[[{"header":{"parameterUnit":"m.s-1","parameterCategory":1,"la1":30.2991,"la2":30.254,"lo1":-89.0895,"lo2":-89.0444,"dy":0.0017,"dx":0.0017,"nx":28,"ny":28,"refTime":"2025-01-26T09:00:00:Z","depth":0,"parameterNumber":2,"parameterNumberName":"U-component_of_WINDS"},"data":[0,0,0,0,0,0,0,0,0,0,0,0,0,0,0,0,0,0,0,0,0,0,0,0,0,0,0,0,0,0,0,0,0,0,0,0,0,0,0,0,0,0,0,0,0,0,0,0,0,0,0,0,0,0,0,0,0,0,0.2528,0.2528,0,0.2521,0.2521,0.2521,0.254,0.2541,0.2541,0.2542,0.2532,0.2531,0.253,0,0,0,0,0,0,0,0,0,0,0,0,0,0.2558,0.2557,0.2528,0.2528,0.2528,0.2521,0.2521,0.2521,0.254,0.2541,0.2541,0.2542,0.2532,0.2531,0.253,0,0,0,0,0,0,0,0,0,0,0,0,0,0.2547,0.2557,0.2528,0.2537,0.2538,0.2521,0.2521,0.2521,0.254,0.2541,0.2542,0.2542,0.2532,0.2531,0.253,0.2503,0,0,0.2526,0.2525,0,0,0,0,0,0,0,0,0.2548,0.2546,0.2536,0.2536,0.2537,0.2532,0.2527,0.2515,0.254,0.2539,0.2542,0.2543,0.2531,0.253,0.2526,0.2503,0.2502,0.2526,0.2525,0.2524,0.2524,0,0,0,0,0,0,0,0.2548,0.2546,0.2525,0.2536,0.2537,0.2541,0.254,0.2525,0.253,0.2539,0.254,0.2539,0.2531,0.2527,0.2526,0.2502,0.2526,0.2525,0.2524,0.2523,0.2458,0.2457,0,0,0,0,0,0,0.2548,0.2547,0.2526,0.2525,0.2545,0.2539,0.2539,0.2533,0.253,0.253,0.2539,0.254,0.2529,0.2528,0.2526,0.2495,0.2524,0.2523,0.2522,0.2458,0.2457,0.2456,0,0,0,0,0,0,0.2549,0.2546,0.2526,0.2536,0.2534,0.2538,0.2531,0.2532,0.2528,0.253,0.253,0.2534,0.253,0.2528,0.2509,0.2495,0.2523,0.2521,0.246,0.2458,0.2457,0.2433,0,0,0,0,0,0,0.255,0.2546,0.2537,0.2536,0.2534,0.251,0.253,0.2532,0.2526,0.2529,0.2525,0.2526,0.253,0.2511,0.2508,0.2494,0.252,0.2461,0.2459,0.2457,0.2435,0.2431,0.2427,0,0,0,0,0,0.2551,0.253,0.2536,0.2533,0.2522,0.2509,0.2507,0.2514,0.2525,0.2515,0.2516,0.2526,0.2497,0.2509,0.2506,0.2491,0.2462,0.246,0.2457,0.2437,0.2432,0.2427,0,0,0,0,0,0,0.2527,0.253,0.2537,0.2515,0.2512,0.2512,0.25,0.2508,0.2501,0.2503,0.2511,0.251,0.249,0.2489,0.2501,0.2466,0.2481,0.2478,0.2467,0.2462,0.2458,0.2458,0.2519,0,0,0,0,0,0.252,0.251,0.2512,0.2493,0.2491,0.2496,0.249,0.2496,0.2492,0.2491,0.249,0.2486,0.2476,0.2469,0.246,0.2435,0.2435,0.2424,0.242,0.2417,0.2414,0.2401,0.2396,0.2449,0.2449,0.2449,0,0,0.2504,0.2504,0.2497,0.2488,0.2486,0.2475,0.2494,0.2481,0.2473,0.2488,0.2471,0.2471,0.2466,0.2445,0.2435,0.2443,0.2399,0.2414,0.2411,0.241,0.2398,0.2393,0.2388,0.2447,0.2448,0.2448,0,0,0.2469,0.2468,0.2452,0.245,0.2447,0.2451,0.2447,0.2446,0.2447,0.243,0.2441,0.2432,0.2414,0.2411,0.2407,0.2372,0.238,0.2369,0.2348,0.2335,0.2331,0.2328,0.2315,0.231,0.2366,0.2366,0.2366,0,0.2449,0.2433,0.2442,0.2429,0.2425,0.244,0.2423,0.2421,0.2415,0.2411,0.242,0.24,0.2398,0.2376,0.2367,0.2364,0.2359,0.2369,0.2331,0.2328,0.2324,0.2312,0.2308,0.2365,0.2365,0.2365,0.2365,0,0.2409,0.2398,0.2385,0.238,0.2375,0.236,0.2366,0.236,0.2366,0.2368,0.2351,0.235,0.2341,0.2336,0.2342,0.2315,0.232,0.233,0.2346,0.2318,0.2307,0.2302,0.2363,0.2363,0.2363,0.2364,0,0,0.2357,0.2359,0.2354,0.2352,0.2351,0.2342,0.2328,0.2321,0.2314,0.231,0.2298,0.2284,0.2294,0.2289,0.2295,0.2284,0.2257,0.2296,0.2296,0.2288,0.2227,0.2218,0.2213,0.2263,0.2262,0.2261,0.2227,0,0.2323,0.2299,0.2308,0.2284,0.2274,0.2288,0.2276,0.2274,0.2276,0.2267,0.227,0.2259,0.2273,0.2271,0.2261,0.2262,0.2244,0.2265,0.2251,0.225,0.2251,0.2207,0.2198,0.2166,0.2223,0.2222,0.2221,0,0.2279,0.2274,0.2249,0.225,0.2246,0.2235,0.2229,0.2221,0.2219,0.2221,0.2217,0.2225,0.2211,0.2228,0.2209,0.2223,0.2218,0.2218,0.2217,0.2215,0.2233,0.2203,0.2156,0.2151,0.2215,0.2215,0.2216,0,0.2243,0.223,0.2214,0.2212,0.2213,0.2205,0.2205,0.2204,0.2199,0.2193,0.219,0.2183,0.2179,0.2173,0.2179,0.2191,0.2159,0.2176,0.216,0.216,0.2151,0.2152,0.2101,0.215,0.215,0.215,0.215,0,0.2203,0.2187,0.2198,0.2188,0.2171,0.2181,0.2163,0.2164,0.2164,0.2154,0.2166,0.2156,0.2165,0.2156,0.2161,0.2144,0.2142,0.2143,0.2144,0.2142,0.2141,0.2138,0.214,0.2148,0.2149,0.2149,0.2149,0,0.2159,0.2167,0.215,0.2153,0.2153,0.214,0.2142,0.2133,0.2137,0.2124,0.2121,0.2127,0.2117,0.2123,0.2113,0.2116,0.2094,0.2099,0.2095,0.2096,0.2079,0.208,0.2024,0.2017,0.207,0.207,0.2069,0,0.2133,0.2121,0.2123,0.2118,0.2118,0.2109,0.2104,0.2114,0.2108,0.2106,0.2096,0.2088,0.2082,0.2065,0.2068,0.206,0.2064,0.2045,0.2063,0.2061,0.2064,0.2064,0.2063,0.2041,0.2041,0.204,0.204,0,0.2085,0.2089,0.2083,0.2077,0.2072,0.2068,0.2065,0.206,0.207,0.2063,0.2054,0.2049,0.2039,0.203,0.2024,0.2024,0.2033,0.2034,0.203,0.2027,0.2025,0.2025,0.2084,0.2035,0.2036,0.2036,0.2036,0.2036,0.2049,0.2039,0.204,0.2032,0.2031,0.2028,0.202,0.2023,0.2016,0.2009,0.2015,0.2004,0.2003,0.1996,0.1994,0.1985,0.1993,0.1986,0.1985,0.1983,0.198,0.2027,0.1984,0.1984,0.1984,0.1984,0.1984,0,0.2001,0.2002,0.1995,0.1991,0.1985,0.1996,0.1994,0.1988,0.1978,0.1976,0.197,0.196,0.1952,0.1955,0.1947,0.194,0.1944,0.1938,0.1938,0.1937,0.1974,0.1978,0.1934,0.1934,0.1934,0.1934,0.1934,0.1934,0.1975,0.196,0.1964,0.1949,0.195,0.194,0.1937,0.1935,0.1934,0.1922,0.1915,0.1918,0.1918,0.1911,0.1904,0.1905,0.1902,0.1893,0.1896,0.193,0.1935,0.1939,0.1943,0.1893,0.1893,0.186,0.186,0.1859]},{"header":{"parameterUnit":"m.s-1","parameterCategory":1,"la1":30.2991,"la2":30.254,"lo1":-89.0895,"lo2":-89.0444,"dy":0.0017,"dx":0.0017,"nx":28,"ny":28,"refTime":"2025-01-26T09:00:00:Z","depth":0,"parameterNumber":3,"parameterNumberName":"V-component_of_WINDS"},"data":[0,0,0,0,0,0,0,0,0,0,0,0,0,0,0,0,0,0,0,0,0,0,0,0,0,0,0,0,0,0,0,0,0,0,0,0,0,0,0,0,0,0,0,0,0,0,0,0,0,0,0,0,0,0,0,0,0,0,-4.4069,-4.407,0,-4.4172,-4.4173,-4.4174,-4.4164,-4.4163,-4.4161,-4.416,-4.4261,-4.4265,-4.427,0,0,0,0,0,0,0,0,0,0,0,0,0,-4.3861,-4.3865,-4.4068,-4.407,-4.4071,-4.4172,-4.4173,-4.4175,-4.4165,-4.4163,-4.4161,-4.4159,-4.426,-4.4265,-4.427,0,0,0,0,0,0,0,0,0,0,0,0,0,-4.3956,-4.3866,-4.4068,-4.4078,-4.408,-4.4171,-4.4173,-4.4175,-4.4165,-4.4163,-4.416,-4.4158,-4.4258,-4.4264,-4.4271,-4.4357,0,0,-4.429,-4.4293,0,0,0,0,0,0,0,0,-4.3951,-4.3964,-4.4076,-4.4078,-4.408,-4.4153,-4.4137,-4.4236,-4.4166,-4.4133,-4.416,-4.4157,-4.4227,-4.4236,-4.426,-4.4362,-4.4366,-4.429,-4.4294,-4.4297,-4.4299,0,0,0,0,0,0,0,-4.3945,-4.396,-4.4109,-4.4077,-4.408,-4.4077,-4.4088,-4.4156,-4.4192,-4.4135,-4.4135,-4.4147,-4.4228,-4.4254,-4.4262,-4.4368,-4.429,-4.4296,-4.43,-4.4302,-4.4549,-4.4552,0,0,0,0,0,0,-4.3936,-4.3954,-4.4106,-4.4112,-4.4009,-4.4083,-4.4095,-4.4132,-4.4191,-4.4198,-4.4149,-4.4147,-4.4245,-4.4255,-4.4266,-4.4374,-4.4297,-4.4303,-4.4306,-4.4547,-4.455,-4.4553,0,0,0,0,0,0,-4.3931,-4.395,-4.4102,-4.4033,-4.4053,-4.4089,-4.413,-4.4135,-4.4162,-4.4202,-4.4208,-4.417,-4.4243,-4.4257,-4.4336,-4.4377,-4.4306,-4.4311,-4.4543,-4.4548,-4.4552,-4.4589,0,0,0,0,0,0,-4.3926,-4.3948,-4.3981,-4.4034,-4.4056,-4.417,-4.4133,-4.4139,-4.4173,-4.417,-4.4223,-4.4229,-4.4242,-4.4326,-4.4342,-4.4385,-4.4316,-4.454,-4.4545,-4.455,-4.4584,-4.4594,-4.4602,0,0,0,0,0,-4.3918,-4.3986,-4.3983,-4.4001,-4.4099,-4.4173,-4.4185,-4.42,-4.4176,-4.421,-4.4237,-4.4227,-4.437,-4.4335,-4.4352,-4.4397,-4.4537,-4.4544,-4.455,-4.458,-4.4592,-4.4602,0,0,0,0,0,0,-4.3935,-4.3993,-4.399,-4.4077,-4.4121,-4.4171,-4.4214,-4.4212,-4.4261,-4.4257,-4.4272,-4.4284,-4.4364,-4.4388,-4.4348,-4.4486,-4.445,-4.446,-4.4467,-4.4479,-4.4488,-4.4481,-4.4321,0,0,0,0,0,-4.3949,-4.4005,-4.4052,-4.4125,-4.4147,-4.4177,-4.4209,-4.4218,-4.4263,-4.428,-4.4312,-4.4355,-4.441,-4.4445,-4.4498,-4.4587,-4.46,-4.4627,-4.4636,-4.4643,-4.4652,-4.4704,-4.4717,-4.4574,-4.4574,-4.4574,0,0,-4.3978,-4.4017,-4.4051,-4.4129,-4.4163,-4.4221,-4.4192,-4.4253,-4.4297,-4.4289,-4.4367,-4.4391,-4.444,-4.4526,-4.4565,-4.4548,-4.4695,-4.4651,-4.4657,-4.4662,-4.4712,-4.4725,-4.4738,-4.4578,-4.4577,-4.4577,0,0,-4.4061,-4.4096,-4.4161,-4.4197,-4.4251,-4.4271,-4.4287,-4.4338,-4.4356,-4.4434,-4.443,-4.4481,-4.4575,-4.4611,-4.4641,-4.4742,-4.4736,-4.4758,-4.4806,-4.4856,-4.4868,-4.4878,-4.4916,-4.4929,-4.4767,-4.4767,-4.4767,0,-4.4091,-4.4178,-4.4195,-4.4259,-4.4294,-4.4292,-4.4359,-4.4392,-4.446,-4.4484,-4.4465,-4.4585,-4.4617,-4.4712,-4.4738,-4.4761,-4.4781,-4.4753,-4.4865,-4.4875,-4.4885,-4.4922,-4.4936,-4.4769,-4.4769,-4.4769,-4.4769,0,-4.4213,-4.4274,-4.432,-4.4389,-4.4429,-4.4493,-4.452,-4.4559,-4.4564,-4.4587,-4.4668,-4.4707,-4.4769,-4.4792,-4.4796,-4.4889,-4.4878,-4.4861,-4.4826,-4.4901,-4.4936,-4.495,-4.4773,-4.4772,-4.4771,-4.4771,0,0,-4.4308,-4.4387,-4.4404,-4.4436,-4.4496,-4.4544,-4.4609,-4.4672,-4.4706,-4.4753,-4.4809,-4.489,-4.4876,-4.4911,-4.492,-4.4964,-4.5045,-4.4943,-4.4944,-4.4962,-4.5152,-4.5165,-4.5181,-4.5041,-4.5044,-4.5046,-4.5149,0,-4.4399,-4.4517,-4.4535,-4.4638,-4.4696,-4.4697,-4.4754,-4.4797,-4.4821,-4.4873,-4.4897,-4.4956,-4.4932,-4.4954,-4.4998,-4.5026,-4.5083,-4.5018,-4.5094,-4.5096,-4.5084,-4.5199,-4.5212,-4.5307,-4.5162,-4.5164,-4.5166,0,-4.4521,-4.4574,-4.4684,-4.474,-4.4765,-4.4816,-4.4877,-4.4926,-4.4976,-4.499,-4.5031,-4.5035,-4.5103,-4.5065,-4.5161,-4.5116,-4.5148,-4.5167,-4.5171,-4.518,-4.5137,-4.5212,-4.5337,-4.5353,-4.5187,-4.5185,-4.5184,0,-4.4582,-4.4681,-4.4761,-4.4788,-4.4854,-4.4891,-4.492,-4.4967,-4.5005,-4.5057,-4.5082,-4.5141,-4.5174,-4.5219,-4.524,-4.521,-4.5335,-4.5298,-4.5349,-4.5349,-4.5376,-4.5374,-4.551,-4.5394,-4.5394,-4.5393,-4.5393,0,-4.4683,-4.4751,-4.479,-4.4839,-4.4916,-4.4936,-4.5011,-4.5039,-4.5082,-4.5136,-4.5139,-4.519,-4.5213,-4.5268,-4.5284,-4.5363,-4.5376,-4.539,-4.5394,-4.5391,-4.539,-4.5413,-4.5408,-4.5397,-4.5396,-4.5396,-4.5395,0,-4.4765,-4.4794,-4.4881,-4.4938,-4.4954,-4.5008,-4.5056,-4.5104,-4.5128,-4.5197,-4.5215,-4.5252,-4.5317,-4.5342,-4.542,-4.5431,-4.5522,-4.5519,-4.5506,-4.5507,-4.5558,-4.5554,-4.5715,-4.5739,-4.5605,-4.5606,-4.5607,0,-4.4828,-4.4881,-4.4944,-4.4982,-4.5013,-4.5073,-4.5113,-4.5135,-4.5176,-4.5239,-4.528,-4.5345,-4.5399,-4.5503,-4.5536,-4.5597,-4.5597,-4.5649,-4.5606,-4.5602,-4.56,-4.5598,-4.5604,-4.5657,-4.5659,-4.566,-4.5661,0,-4.4938,-4.495,-4.5008,-4.5071,-4.5119,-4.5169,-4.5218,-4.5249,-4.5279,-4.5325,-4.5393,-4.5435,-4.5517,-4.5582,-4.5646,-4.5675,-4.5674,-4.5674,-4.569,-4.5688,-4.5679,-4.5687,-4.553,-4.5671,-4.567,-4.5669,-4.5668,-4.5668,-4.5014,-4.5062,-4.5115,-4.518,-4.522,-4.5267,-4.5316,-4.5347,-4.5405,-4.5475,-4.5484,-4.5557,-4.5608,-4.5693,-4.5726,-4.5783,-4.5769,-4.5791,-4.5797,-4.5803,-4.5808,-4.5669,-4.5794,-4.5794,-4.5794,-4.5794,-4.5794,0,-4.5126,-4.5161,-4.522,-4.5291,-4.5342,-4.5338,-4.5393,-4.5436,-4.5501,-4.5549,-4.5603,-4.5683,-4.5747,-4.5787,-4.5852,-4.589,-4.5892,-4.5907,-4.5905,-4.5912,-4.5815,-4.5796,-4.5905,-4.5905,-4.5905,-4.5905,-4.5905,-4.5905,-4.519,-4.5273,-4.5292,-4.5395,-4.5429,-4.5503,-4.5535,-4.5579,-4.5618,-4.5707,-4.5762,-4.5788,-4.5833,-4.5902,-4.5961,-4.5971,-4.5995,-4.6012,-4.6021,-4.593,-4.5919,-4.5908,-4.589,-4.6017,-4.6017,-4.6114,-4.6115,-4.6116]}]]